Time[GMT],significant_wave_height[m](0m),dominant_wave_period[s](0m),max_wave_height[m](0m),mean_wave_direction[degrees](0m),mean_wave_direction_spread[degrees](0m)
2018-05-08 15:00, 1.35,8.0,1.89,60.50,26.00
2018-05-08 16:00, 1.47,8.3,2.27,62.50,26.00
2018-05-08 17:00, 1.37,8.3,2.92,64.50,27.00
2018-05-08 18:00, 1.43,7.4,1.91,62.50,29.00
2018-05-08 19:00, 1.44,7.7,2.51,65.50,30.00
2018-05-08 20:00, 1.57,5.7,2.56,66.50,28.00
2018-05-08 21:00, 1.60,8.0,2.53,64.50,27.00
2018-05-08 22:00, 1.52,7.4,2.27,66.50,28.00
2018-05-08 23:00, 1.36,8.3,2.29,64.50,29.00
2018-05-09 00:00, 1.27,8.7,1.93,61.50,30.00
2018-05-09 01:00, 1.37,7.7,2.14,61.50,28.00
2018-05-09 02:00, 1.22,6.5,2.60,60.50,30.00
2018-05-09 03:00, 1.30,5.7,2.04,58.50,27.00
2018-05-09 04:00, 1.30,6.1,2.20,59.50,27.00
2018-05-09 05:00, 1.47,6.5,2.23,59.50,25.00
2018-05-09 06:00, 1.37,8.7,2.16,61.50,23.00
2018-05-09 07:00, 1.45,6.5,2.65,61.50,23.00
2018-05-09 08:00, 1.51,5.6,2.68,64.50,24.00
2018-05-09 09:00, 1.43,8.0,2.79,61.50,26.00
2018-05-09 10:00, 1.58,7.1,2.45,59.50,23.00
2018-05-09 11:00, 1.49,8.7,1.93,60.50,24.00
2018-05-09 12:00, 1.61,6.3,2.33,58.50,24.00
2018-05-09 13:00, 1.40,6.7,2.28,60.50,27.00
2018-05-09 14:00, 1.38,6.3,2.02,61.50,26.00
2018-05-09 15:00, 1.40,6.3,2.30,62.50,29.00
2018-05-09 16:00, 1.36,6.1,2.61,63.50,27.00
2018-05-09 17:00, 1.47,7.1,2.86,63.50,28.00
2018-05-09 18:00, 1.55,8.3,2.28,64.50,25.00
2018-05-09 19:00, 1.38,8.3,2.52,61.50,26.00
2018-05-09 20:00, 1.55,7.1,2.58,64.50,24.00
2018-05-09 21:00, 1.72,6.9,3.67,60.50,27.00
2018-05-09 22:00, 1.51,6.3,2.38,58.50,26.00
2018-05-09 23:00, 1.27,6.1,2.10,56.50,29.00
2018-05-10 00:00, 1.40,6.7,2.52,56.50,25.00
2018-05-10 01:00, 1.21,6.7,2.24,55.50,25.00
2018-05-10 02:00, 1.23,7.7,2.25,57.50,26.00
2018-05-10 03:00, 1.30,5.9,2.00,61.50,27.00
2018-05-10 04:00, 1.26,6.5,2.10,60.50,27.00
2018-05-10 05:00, 1.35,8.7,1.99,58.50,25.00
2018-05-10 06:00, 1.26,8.7,2.90,61.50,26.00
2018-05-10 07:00, 1.34,7.4,2.09,59.50,26.00
2018-05-10 08:00, 1.30,7.1,1.85,61.50,26.00
2018-05-10 09:00, 1.37,6.5,2.26,61.50,26.00
2018-05-10 10:00, 1.43,8.3,2.05,61.50,23.00
2018-05-10 11:00, 1.28,5.9,2.26,61.50,27.00
2018-05-10 12:00, 1.39,5.7,1.87,61.50,26.00
2018-05-10 13:00, 1.39,5.7,2.15,65.50,28.00
2018-05-10 14:00, 1.35,6.5,2.20,65.50,30.00
2018-05-10 15:00, 1.44,5.7,2.06,63.50,29.00
2018-05-10 16:00, 1.52,6.3,2.30,64.50,26.00
2018-05-10 17:00, 1.46,7.1,2.19,68.50,27.00
2018-05-10 18:00, 1.51,6.7,3.19,66.50,26.00
2018-05-10 19:00, 1.44,6.9,2.54,66.50,25.00
2018-05-10 20:00, 1.32,6.3,1.96,64.50,28.00
2018-05-10 21:00, 1.28,6.5,2.31,67.50,29.00
2018-05-10 22:00, 1.20,5.3,2.00,61.50,29.00
2018-05-10 23:00, 1.22,6.5,2.24,62.50,27.00
2018-05-11 00:00, 1.24,5.7,2.00,59.50,28.00
2018-05-11 01:00, 1.26,5.7,2.28,63.50,28.00
2018-05-11 02:00, 1.16,5.1,1.79,64.50,29.00
2018-05-11 03:00, 1.17,6.1,1.99,60.50,28.00
2018-05-11 04:00, 1.21,6.1,2.16,61.50,28.00
2018-05-11 05:00, 1.12,5.7,1.70,59.50,29.00
2018-05-11 06:00, 1.07,5.1,1.67,59.50,27.00
2018-05-11 07:00, 1.10,6.3,1.79,61.50,26.00
2018-05-11 08:00, 1.10,6.5,1.69,58.50,27.00
2018-05-11 09:00, 1.03,6.9,1.91,60.50,28.00
2018-05-11 10:00, 1.11,6.3,2.03,60.50,27.00
2018-05-11 11:00, 1.11,6.5,2.04,58.50,27.00
2018-05-11 12:00, 1.07,6.7,1.49,59.50,32.00
2018-05-11 13:00, 1.06,5.9,1.79,61.50,28.00
2018-05-11 14:00, 1.06,5.9,1.69,60.50,27.00
2018-05-11 15:00, 1.00,6.9,1.99,61.50,29.00
2018-05-11 16:00, 1.08,7.1,1.68,63.50,30.00
2018-05-11 17:00, 1.09,5.4,2.07,57.50,26.00
2018-05-11 18:00, 1.11,6.1,1.72,60.50,26.00
2018-05-11 19:00, 1.08,6.5,1.76,59.50,27.00
2018-05-11 20:00, 1.11,6.7,1.93,65.50,29.00
2018-05-11 21:00, 1.01,6.5,1.75,60.50,29.00
2018-05-11 22:00, 1.01,5.4,1.65,65.50,30.00
2018-05-11 23:00, 1.03,5.6,1.78,62.50,28.00
2018-05-12 00:00, 0.97,5.7,1.58,64.50,31.00
2018-05-12 01:00, 0.93,6.9,1.66,61.50,29.00
2018-05-12 02:00, 0.89,6.1,1.47,59.50,32.00
2018-05-12 03:00, 1.00,5.1,1.76,61.50,29.00
2018-05-12 04:00, 0.93,5.0,1.48,60.50,28.00
2018-05-12 05:00, 0.91,4.8,1.56,58.50,28.00
2018-05-12 06:00, 1.03,8.0,1.71,59.50,28.00
2018-05-12 07:00, 1.05,4.8,1.76,57.50,27.00
2018-05-12 08:00, 1.17,6.5,2.05,60.50,24.00
2018-05-12 09:00, 1.11,5.4,1.75,59.50,25.00
2018-05-12 10:00, 1.07,5.6,1.85,60.50,28.00
2018-05-12 11:00, 1.09,6.5,1.87,58.50,27.00
2018-05-12 12:00, 1.04,6.7,1.53,57.50,27.00
2018-05-12 13:00, 1.04,8.3,1.71,57.50,25.00
2018-05-12 14:00, 1.06,6.1,1.64,58.50,26.00
2018-05-12 15:00, 0.96,7.7,1.66,60.50,27.00
2018-05-12 16:00, 0.97,7.1,1.46,58.50,26.00
2018-05-12 17:00, 0.96,6.3,1.50,58.50,28.00
2018-05-12 18:00, 1.04,8.0,1.68,59.50,26.00
2018-05-12 19:00, 1.10,6.9,1.83,59.50,26.00
2018-05-12 20:00, 1.02,6.5,1.44,59.50,28.00
2018-05-12 21:00, 1.17,8.0,2.10,62.50,26.00
2018-05-12 22:00, 1.05,8.3,2.02,62.50,32.00
2018-05-12 23:00, 1.07,6.3,2.45,64.50,31.00
2018-05-13 00:00, 1.18,7.4,1.67,61.50,32.00
2018-05-13 01:00, 1.18,5.1,1.78,65.50,30.00
2018-05-13 02:00, 1.27,6.3,1.98,65.50,28.00
2018-05-13 03:00, 1.14,6.1,1.75,63.50,30.00
2018-05-13 04:00, 1.23,5.9,2.01,61.50,25.00
2018-05-13 05:00, 1.25,5.9,1.91,61.50,25.00
2018-05-13 06:00, 1.26,5.9,1.80,63.50,25.00
2018-05-13 07:00, 1.12,6.5,1.88,64.50,30.00
2018-05-13 08:00, 1.17,6.7,1.61,61.50,28.00
2018-05-13 09:00, 1.18,5.9,1.96,61.50,26.00
2018-05-13 10:00, 1.03,5.9,2.02,60.50,29.00
2018-05-13 11:00, 1.06,6.3,1.90,61.50,27.00
2018-05-13 12:00, 1.04,6.1,1.78,60.50,27.00
2018-05-13 13:00, 0.99,5.7,1.69,64.50,29.00
2018-05-13 14:00, 1.08,6.1,1.58,65.50,30.00
2018-05-13 15:00, 1.01,6.1,1.75,67.50,30.00
2018-05-13 16:00, 1.11,5.7,1.70,67.50,28.00
2018-05-13 17:00, 1.06,5.9,1.74,66.50,29.00
2018-05-13 18:00, 1.06,5.7,1.84,66.50,28.00
2018-05-13 19:00, 0.96,5.7,1.65,64.50,29.00
2018-05-13 20:00, 1.08,6.1,1.78,61.50,27.00
2018-05-13 21:00, 1.00,5.0,1.80,63.50,30.00
2018-05-13 22:00, 1.02,5.6,1.76,64.50,26.00
2018-05-13 23:00, 0.99,5.4,1.71,60.50,28.00
2018-05-14 00:00, 0.93,5.7,1.35,61.50,28.00
2018-05-14 01:00, 0.93,6.5,1.80,61.50,26.00
2018-05-14 02:00, 0.92,6.1,1.41,60.50,28.00
2018-05-14 03:00, 0.99,5.7,1.79,58.50,30.00
2018-05-14 04:00, 1.05,5.3,1.76,61.50,28.00
2018-05-14 05:00, 1.09,5.9,1.93,64.50,28.00
2018-05-14 06:00, 1.14,6.3,1.80,62.50,28.00
2018-05-14 07:00, 1.22,5.7,1.78,64.50,25.00
2018-05-14 08:00, 1.08,6.1,1.76,60.50,29.00
2018-05-14 09:00, 1.17,5.9,2.06,63.50,28.00
2018-05-14 10:00, 1.16,5.4,1.82,65.50,27.00
2018-05-14 11:00, 1.11,5.9,1.91,66.50,27.00
2018-05-14 12:00, 1.09,6.3,1.55,63.50,32.00
2018-05-14 13:00, 1.11,5.6,2.18,68.50,28.00
2018-05-14 14:00, 1.03,5.6,1.87,67.50,29.00
2018-05-14 15:00, 1.08,6.5,1.78,67.50,29.00
2018-05-14 16:00, 1.14,6.1,1.90,66.50,34.00
2018-05-14 17:00, 1.12,6.3,1.62,65.50,27.00
2018-05-14 18:00, 1.13,5.7,1.97,63.50,27.00
2018-05-14 19:00, 1.12,5.7,1.63,61.50,27.00
2018-05-14 20:00, 1.12,5.6,1.64,63.50,27.00
2018-05-14 21:00, 1.11,5.7,1.83,62.50,30.00
2018-05-14 22:00, 1.07,6.5,1.73,63.50,29.00
2018-05-14 23:00, 1.02,7.1,1.68,61.50,28.00
2018-05-15 00:00, 1.01,6.1,1.47,58.50,26.00
2018-05-15 01:00, 1.02,6.5,1.49,56.50,27.00
2018-05-15 02:00, 1.00,5.9,1.50,58.50,29.00
2018-05-15 03:00, 1.01,6.3,1.65,61.50,28.00
2018-05-15 04:00, 1.07,5.6,1.72,60.50,30.00
2018-05-15 05:00, 1.13,5.6,1.95,61.50,28.00
2018-05-15 06:00, 1.27,6.7,1.90,64.50,29.00
2018-05-15 07:00, 1.36,6.5,2.59,66.50,27.00
2018-05-15 08:00, 1.31,6.1,2.21,67.50,29.00
2018-05-15 09:00, 1.45,6.3,2.28,65.50,25.00
2018-05-15 10:00, 1.33,6.3,2.08,69.50,28.00
2018-05-15 11:00, 1.22,6.1,1.73,64.50,32.00
2018-05-15 12:00, 1.36,6.5,2.41,69.50,29.00
2018-05-15 13:00, 1.52,6.5,2.47,67.50,24.00
2018-05-15 14:00, 1.37,6.7,2.33,66.50,30.00
2018-05-15 15:00, 1.30,6.1,2.30,63.50,28.00
2018-05-15 16:00, 1.21,6.1,2.03,64.50,28.00
2018-05-15 17:00, 1.20,6.3,2.06,63.50,31.00
2018-05-15 18:00, 1.27,6.1,1.87,61.50,28.00
2018-05-15 19:00, 1.27,6.3,2.17,60.50,28.00
2018-05-15 20:00, 1.29,6.7,2.01,60.50,28.00
2018-05-15 21:00, 1.26,5.9,2.15,59.50,28.00
2018-05-15 22:00, 1.30,6.5,1.84,60.50,28.00
2018-05-15 23:00, 1.25,6.7,2.05,59.50,29.00
2018-05-16 00:00, 1.20,6.3,2.10,58.50,27.00
2018-05-16 01:00, 1.18,6.5,2.05,59.50,27.00
2018-05-16 02:00, 1.23,6.7,2.11,61.50,25.00
2018-05-16 03:00, 1.27,6.7,2.21,60.50,29.00
2018-05-16 04:00, 1.31,6.1,2.20,59.50,27.00
2018-05-16 05:00, 1.26,6.5,2.10,62.50,27.00
2018-05-16 06:00, 1.21,6.5,2.22,59.50,28.00
2018-05-16 07:00, 1.12,6.1,1.80,64.50,30.00
2018-05-16 08:00, 1.34,6.1,2.22,61.50,25.00
2018-05-16 09:00, 1.22,5.7,1.84,61.50,28.00
2018-05-16 10:00, 1.27,5.9,1.93,61.50,32.00
2018-05-16 11:00, 1.29,6.7,2.42,61.50,28.00
2018-05-16 12:00, 1.35,6.7,2.46,63.50,27.00
2018-05-16 13:00, 1.35,6.1,2.19,64.50,30.00
2018-05-16 14:00, 1.34,6.7,2.50,64.50,30.00
2018-05-16 15:00, 1.52,5.4,2.77,62.50,28.00
2018-05-16 16:00, 1.46,6.1,2.29,61.50,30.00
2018-05-16 17:00, 1.48,6.9,2.66,61.50,28.00
2018-05-16 18:00, 1.43,6.3,2.31,59.50,28.00
2018-05-16 19:00, 1.44,6.7,2.25,57.50,31.00
2018-05-16 20:00, 1.39,5.9,2.31,60.50,29.00
2018-05-16 21:00, 1.43,7.1,2.26,57.50,31.00
2018-05-16 22:00, 1.41,6.7,2.20,58.50,29.00
2018-05-16 23:00, 1.40,7.1,2.30,56.50,28.00
2018-05-17 00:00, 1.47,7.1,2.48,58.50,26.00
2018-05-17 01:00, 1.63,6.9,2.74,56.50,25.00
2018-05-17 02:00, 1.56,6.7,2.71,60.50,25.00
2018-05-17 03:00, 1.44,7.1,2.15,58.50,26.00
2018-05-17 04:00, 1.31,7.1,2.20,59.50,25.00
2018-05-17 05:00, 1.57,6.9,2.86,57.50,29.00
2018-05-17 06:00, 1.55,6.3,2.49,58.50,25.00
2018-05-17 07:00, 1.63,7.1,2.28,58.50,28.00
2018-05-17 08:00, 1.58,7.1,2.72,58.50,26.00
2018-05-17 09:00, 1.56,6.5,2.75,62.50,25.00
2018-05-17 10:00, 1.74,7.1,2.98,63.50,22.00
2018-05-17 11:00, 1.55,6.5,2.53,59.50,27.00
2018-05-17 12:00, 1.45,7.1,2.39,62.50,26.00
2018-05-17 13:00, 1.58,7.4,2.62,63.50,25.00
2018-05-17 14:00, 1.60,7.1,2.61,63.50,26.00
2018-05-17 15:00, 1.61,7.4,2.69,63.50,26.00
2018-05-17 16:00, 1.59,6.5,2.65,63.50,27.00
2018-05-17 17:00, 1.51,5.9,2.42,61.50,28.00
2018-05-17 18:00, 1.41,6.5,2.35,58.50,29.00
2018-05-17 19:00, 1.28,6.9,1.90,58.50,30.00
2018-05-17 20:00, 1.32,7.4,2.36,59.50,31.00
2018-05-17 21:00, 1.35,7.1,2.28,58.50,30.00
2018-05-17 22:00, 1.48,6.7,2.25,56.50,27.00
2018-05-17 23:00, 1.39,7.7,2.75,54.50,29.00
2018-05-18 00:00, 1.43,8.0,2.17,57.50,30.00
2018-05-18 01:00, 1.44,7.7,2.42,57.50,30.00
2018-05-18 02:00, 1.66,8.0,2.39,57.50,26.00
2018-05-18 03:00, 1.61,6.3,2.56,58.50,26.00
2018-05-18 04:00, 1.56,7.1,2.45,56.50,30.00
2018-05-18 05:00, 1.68,7.7,2.33,57.50,26.00
2018-05-18 06:00, 1.48,6.5,2.34,59.50,28.00
2018-05-18 07:00, 1.58,6.5,2.25,57.50,27.00
2018-05-18 08:00, 1.69,6.3,2.85,60.50,25.00
2018-05-18 09:00, 1.57,6.9,2.45,59.50,25.00
2018-05-18 10:00, 1.48,6.1,2.32,59.50,28.00
2018-05-18 11:00, 1.65,6.9,2.45,57.50,27.00
2018-05-18 12:00, 1.61,7.1,2.44,58.50,24.00
2018-05-18 13:00, 1.57,6.7,2.61,62.50,26.00
2018-05-18 14:00, 1.70,6.7,2.97,61.50,25.00
2018-05-18 15:00, 1.54,6.9,2.27,61.50,27.00
2018-05-18 16:00, 1.64,6.7,2.46,62.50,25.00
2018-05-18 17:00, 1.45,6.9,2.92,62.50,29.00
2018-05-18 18:00, 1.57,7.4,2.66,62.50,29.00
2018-05-18 19:00, 1.55,6.1,2.55,59.50,29.00
2018-05-18 20:00, 1.78,7.7,2.70,58.50,26.00
2018-05-18 21:00, 1.84,8.3,3.58,53.50,26.00
2018-05-18 22:00, 1.77,7.4,3.04,55.50,27.00
2018-05-18 23:00, 1.70,7.4,2.74,55.50,28.00
2018-05-19 00:00, 2.01,8.7,2.87,57.50,26.00
2018-05-19 01:00, 1.81,7.4,2.74,57.50,27.00
2018-05-19 02:00, 2.00,6.9,3.38,55.50,23.00
2018-05-19 03:00, 1.82,8.3,3.43,55.50,27.00
2018-05-19 04:00, 1.76,8.7,3.06,55.50,27.00
2018-05-19 05:00, 1.77,7.1,2.71,55.50,28.00
2018-05-19 06:00, 1.84,8.3,2.99,53.50,26.00
2018-05-19 07:00, 1.84,7.1,2.84,53.50,25.00
2018-05-19 08:00, 1.84,7.1,2.82,55.50,27.00
2018-05-19 09:00, 1.79,9.1,2.75,57.50,26.00
2018-05-19 10:00, 1.72,9.1,2.75,57.50,28.00
2018-05-19 11:00, 1.74,8.7,3.38,58.50,27.00
2018-05-19 12:00, 1.83,8.3,2.70,58.50,26.00
2018-05-19 13:00, 1.85,9.1,2.94,58.50,26.00
2018-05-19 14:00, 1.72,9.1,2.77,58.50,26.00
2018-05-19 15:00, 1.80,7.7,3.03,61.50,26.00
2018-05-19 16:00, 2.00,6.7,3.27,60.50,25.00
2018-05-19 17:00, 2.01,8.3,3.55,62.50,26.00
2018-05-19 18:00, 1.87,8.0,2.87,60.50,28.00
2018-05-19 19:00, 2.07,6.5,3.29,60.50,25.00
2018-05-19 20:00, 1.84,6.9,3.16,60.50,29.00
2018-05-19 21:00, 1.93,7.4,3.37,59.50,29.00
2018-05-19 22:00, 1.86,7.4,2.79,58.50,28.00
2018-05-19 23:00, 1.82,7.7,3.02,55.50,28.00
2018-05-20 00:00, 1.85,7.7,2.71,54.50,28.00
2018-05-20 01:00, 1.80,7.4,2.59,55.50,28.00
2018-05-20 02:00, 2.02,7.4,2.72,55.50,25.00
2018-05-20 03:00, 2.08,8.7,2.74,54.50,24.00
2018-05-20 04:00, 1.96,7.4,3.79,57.50,24.00
2018-05-20 05:00, 1.84,9.1,2.92,55.50,25.00
2018-05-20 06:00, 1.84,7.1,3.14,56.50,26.00
2018-05-20 07:00, 1.85,9.1,2.97,56.50,26.00
2018-05-20 08:00, 1.73,8.0,3.10,58.50,25.00
2018-05-20 09:00, 1.90,8.7,2.68,57.50,23.00
2018-05-20 10:00, 1.82,9.1,2.67,57.50,24.00
2018-05-20 11:00, 1.86,7.7,2.90,59.50,25.00
2018-05-20 12:00, 1.82,8.7,2.68,57.50,27.00
2018-05-20 13:00, 1.94,8.3,3.00,60.50,25.00
2018-05-20 14:00, 1.86,7.7,2.88,61.50,27.00
2018-05-20 15:00, 1.83,7.1,2.93,60.50,28.00
2018-05-20 16:00, 1.79,8.7,2.65,61.50,30.00
2018-05-20 17:00, 1.84,7.1,3.19,61.50,28.00
2018-05-20 18:00, 1.70,8.3,3.28,56.50,31.00
2018-05-20 19:00, 1.74,8.7,2.58,57.50,29.00
2018-05-20 20:00, 1.86,8.7,3.42,58.50,26.00
2018-05-20 21:00, 1.75,7.4,2.53,54.50,29.00
2018-05-20 22:00, 1.68,6.7,2.71,54.50,28.00
2018-05-20 23:00, 1.58,8.7,2.65,55.50,29.00
2018-05-21 00:00, 1.45,6.7,2.99,53.50,30.00
2018-05-21 01:00, 1.45,8.7,2.23,51.50,29.00
2018-05-21 02:00, 1.47,7.1,2.56,51.50,30.00
2018-05-21 03:00, 1.49,8.0,2.50,52.50,28.00
2018-05-21 04:00, 1.56,5.9,2.30,52.50,28.00
2018-05-21 05:00, 1.54,5.9,2.66,55.50,28.00
2018-05-21 06:00, 1.49,6.7,2.69,55.50,29.00
2018-05-21 07:00, 1.54,6.7,3.06,52.50,27.00
2018-05-21 08:00, 1.52,6.1,2.66,53.50,29.00
2018-05-21 09:00, 1.65,6.5,2.42,52.50,26.00
2018-05-21 10:00, 1.41,6.5,2.47,53.50,28.00
2018-05-21 11:00, 1.28,8.3,2.17,55.50,31.00
2018-05-21 12:00, 1.42,6.3,2.23,52.50,28.00
2018-05-21 13:00, 1.55,6.5,2.60,55.50,30.00
2018-05-21 14:00, 1.44,6.7,2.35,52.50,28.00
2018-05-21 15:00, 1.44,8.0,2.39,53.50,30.00
2018-05-21 16:00, 1.39,6.7,1.94,50.50,30.00
2018-05-21 17:00, 1.33,5.9,2.23,52.50,31.00
2018-05-21 18:00, 1.33,6.1,2.12,52.50,31.00
2018-05-21 19:00, 1.24,6.9,2.14,50.50,32.00
2018-05-21 20:00, 1.26,6.5,2.07,49.50,31.00
2018-05-21 21:00, 1.36,6.9,2.45,51.50,29.00
2018-05-21 22:00, 1.36,8.0,2.17,52.50,30.00
2018-05-21 23:00, 1.16,6.7,2.38,51.50,37.00
2018-05-22 00:00, 1.24,6.7,2.11,51.50,32.00
2018-05-22 01:00, 1.22,7.1,1.99,50.50,32.00
2018-05-22 02:00, 1.23,6.5,1.84,50.50,31.00
2018-05-22 03:00, 1.17,7.1,2.04,48.50,31.00
2018-05-22 04:00, 1.28,8.0,1.96,46.50,30.00
2018-05-22 05:00, 1.32,5.7,2.16,51.50,28.00
2018-05-22 06:00, 1.27,5.7,2.72,50.50,30.00
2018-05-22 07:00, 1.28,6.7,2.55,52.50,27.00
2018-05-22 08:00, 1.31,6.1,2.40,49.50,29.00
2018-05-22 09:00, 1.27,8.7,2.14,49.50,33.00
2018-05-22 10:00, 1.21,5.1,2.02,52.50,33.00
2018-05-22 11:00, 1.34,8.3,2.15,56.50,29.00
2018-05-22 12:00, 1.45,6.5,2.58,55.50,31.00
2018-05-22 13:00, 1.34,5.1,1.94,55.50,30.00
2018-05-22 14:00, 1.46,8.3,2.19,57.50,29.00
2018-05-22 15:00, 1.36,8.0,2.22,55.50,32.00
2018-05-22 16:00, 1.50,7.4,2.11,60.50,28.00
2018-05-22 17:00, 1.41,8.0,2.18,55.50,29.00
2018-05-22 18:00, 1.46,5.9,2.75,56.50,28.00
2018-05-22 19:00, 1.57,6.3,2.41,57.50,28.00
2018-05-22 20:00, 1.36,8.7,2.25,55.50,31.00
2018-05-22 21:00, 1.54,8.3,2.60,59.50,31.00
2018-05-22 22:00, 1.54,5.7,2.47,55.50,30.00
2018-05-22 23:00, 1.47,8.3,2.58,56.50,28.00
2018-05-23 00:00, 1.64,5.9,2.78,58.50,27.00
2018-05-23 01:00, 1.59,6.1,2.42,57.50,30.00
2018-05-23 02:00, 1.57,8.7,3.29,56.50,26.00
2018-05-23 03:00, 1.54,6.1,2.43,58.50,28.00
2018-05-23 04:00, 1.45,6.3,2.28,55.50,27.00
2018-05-23 05:00, 1.47,8.0,2.38,56.50,27.00
2018-05-23 06:00, 1.48,6.1,2.52,57.50,28.00
2018-05-23 07:00, 1.48,6.1,2.48,55.50,28.00
2018-05-23 08:00, 1.46,5.7,2.34,53.50,30.00
2018-05-23 09:00, 1.36,9.1,2.79,54.50,27.00
2018-05-23 10:00, 1.33,5.9,2.19,55.50,28.00
2018-05-23 11:00, 1.20,6.9,2.19,53.50,31.00
2018-05-23 12:00, 1.36,5.7,2.82,53.50,28.00
2018-05-23 13:00, 1.29,6.9,1.90,55.50,32.00
2018-05-23 14:00, 1.36,8.3,2.33,56.50,27.00
2018-05-23 15:00, 1.28,8.3,2.18,54.50,29.00
2018-05-23 16:00, 1.23,6.9,1.92,58.50,30.00
2018-05-23 17:00, 1.41,6.3,2.11,59.50,26.00
2018-05-23 18:00, 1.42,7.7,2.08,56.50,27.00
2018-05-23 19:00, 1.30,8.7,1.98,57.50,32.00
2018-05-23 20:00, 1.34,8.0,2.01,58.50,29.00
2018-05-23 21:00, 1.29,8.7,2.21,56.50,29.00
2018-05-23 22:00, 1.31,8.3,2.22,54.50,29.00
2018-05-23 23:00, 1.41,8.7,2.08,56.50,28.00
2018-05-24 00:00, 1.29,6.3,2.00,55.50,27.00
2018-05-24 01:00, 1.21,6.7,1.83,50.50,29.00
2018-05-24 02:00, 1.21,8.3,1.85,54.50,29.00
2018-05-24 03:00, 1.22,5.0,2.14,54.50,28.00
2018-05-24 04:00, 1.21,7.1,1.84,53.50,27.00
2018-05-24 05:00, 1.26,7.1,2.04,58.50,27.00
2018-05-24 06:00, 1.26,5.6,1.87,57.50,28.00
2018-05-24 07:00, 1.26,6.3,1.96,54.50,27.00
2018-05-24 08:00, 1.33,8.7,2.26,56.50,25.00
2018-05-24 09:00, 1.18,8.0,1.91,52.50,28.00
2018-05-24 10:00, 1.26,5.9,2.14,53.50,26.00
2018-05-24 11:00, 1.19,9.1,2.10,49.50,32.00
2018-05-24 12:00, 1.13,5.6,1.73,56.50,28.00
2018-05-24 13:00, 1.17,5.9,1.78,55.50,26.00
2018-05-24 14:00, 1.15,5.3,2.00,58.50,32.00
2018-05-24 15:00, 1.13,5.1,1.82,60.50,30.00
2018-05-24 16:00, 1.15,6.5,1.66,57.50,32.00
2018-05-24 17:00, 1.09,5.7,1.90,61.50,31.00
2018-05-24 18:00, 1.06,6.7,1.98,59.50,29.00
2018-05-24 19:00, 1.11,5.6,1.69,60.50,31.00
2018-05-24 20:00, 1.13,5.9,1.85,61.50,29.00
2018-05-24 21:00, 1.08,5.7,1.69,64.50,29.00
2018-05-24 22:00, 1.06,5.9,1.66,60.50,29.00
2018-05-24 23:00, 1.07,8.7,1.71,58.50,27.00
2018-05-25 00:00, 1.04,8.0,1.56,56.50,29.00
2018-05-25 01:00, 0.96,8.0,1.52,58.50,29.00
2018-05-25 02:00, 1.01,8.7,1.65,58.50,28.00
2018-05-25 03:00, 1.00,5.4,1.63,60.50,30.00
2018-05-25 04:00, 1.08,8.7,1.62,61.50,30.00
2018-05-25 05:00, 1.06,8.7,1.64,62.50,31.00
2018-05-25 06:00, 1.12,5.1,1.87,57.50,28.00
2018-05-25 07:00, 1.19,5.7,1.85,61.50,26.00
2018-05-25 08:00, 1.17,5.7,2.01,61.50,28.00
2018-05-25 09:00, 1.14,5.6,1.89,60.50,29.00
2018-05-25 10:00, 1.13,5.3,1.69,61.50,30.00
2018-05-25 11:00, 1.15,7.1,1.88,58.50,29.00
2018-05-25 12:00, 1.18,8.3,1.91,59.50,29.00
2018-05-25 13:00, 1.14,5.0,1.75,58.50,29.00
2018-05-25 14:00, 1.17,8.0,1.80,59.50,30.00
2018-05-25 15:00, 1.14,5.3,1.89,59.50,30.00
2018-05-25 16:00, 1.12,5.9,2.13,65.50,31.00
2018-05-25 17:00, 1.16,5.6,2.26,59.50,30.00
2018-05-25 18:00, 1.07,8.0,1.65,62.50,29.00
2018-05-25 19:00, 1.03,5.7,1.92,61.50,29.00
2018-05-25 20:00, 1.18,5.4,1.76,65.50,28.00
2018-05-25 21:00, 1.21,5.4,2.11,64.50,32.00
2018-05-25 22:00, 1.17,4.4,1.97,65.50,29.00
2018-05-25 23:00, 1.02,8.0,2.09,63.50,30.00
2018-05-26 00:00, 0.90,5.1,1.43,61.50,33.00
2018-05-26 01:00, 0.88,5.7,1.55,59.50,30.00
2018-05-26 02:00, 0.88,4.9,1.56,57.50,31.00
2018-05-26 03:00, 0.91,5.3,1.58,62.50,31.00
2018-05-26 04:00, 0.93,5.3,1.64,65.50,30.00
2018-05-26 05:00, 0.94,5.3,1.93,63.50,30.00
2018-05-26 06:00, 1.04,5.3,2.07,63.50,28.00
2018-05-26 07:00, 1.00,5.1,1.89,61.50,29.00
2018-05-26 08:00, 0.95,5.1,1.65,61.50,29.00
2018-05-26 09:00, 0.98,5.0,1.96,61.50,30.00
2018-05-26 10:00, 0.94,5.4,1.58,61.50,29.00
2018-05-26 11:00, 0.96,5.4,1.59,61.50,30.00
2018-05-26 12:00, 0.87,5.1,1.19,60.50,32.00
2018-05-26 13:00, 0.94,5.3,1.57,60.50,31.00
2018-05-26 14:00, 0.90,5.1,1.44,65.50,31.00
2018-05-26 15:00, 1.03,5.1,1.74,65.50,31.00
2018-05-26 16:00, 0.97,5.4,1.55,66.50,30.00
2018-05-26 17:00, 0.87,4.7,1.49,60.50,35.00
2018-05-26 18:00, 0.90,5.0,1.43,62.50,33.00
2018-05-26 19:00, 1.01,5.1,1.69,61.50,30.00
2018-05-26 20:00, 1.00,4.9,1.62,63.50,30.00
2018-05-26 21:00, 0.99,5.0,1.65,63.50,31.00
2018-05-26 22:00, 0.90,5.0,1.45,61.50,35.00
2018-05-26 23:00, 0.86,5.3,1.44,62.50,31.00
2018-05-27 00:00, 0.82,4.4,1.32,60.50,29.00
2018-05-27 01:00, 0.77,5.1,1.16,58.50,35.00
2018-05-27 02:00, 0.79,4.7,1.27,58.50,31.00
2018-05-27 03:00, 0.77,4.9,1.64,58.50,31.00
2018-05-27 04:00, 0.72,4.8,1.16,58.50,30.00
2018-05-27 05:00, 0.79,4.9,1.30,58.50,29.00
2018-05-27 06:00, 0.79,5.1,1.19,58.50,30.00
2018-05-27 07:00, 0.72,4.7,1.25,60.50,31.00
2018-05-27 08:00, 0.76,5.1,1.25,58.50,28.00
2018-05-27 09:00, 0.79,5.0,1.34,61.50,28.00
2018-05-27 10:00, 0.82,5.7,1.28,63.50,30.00
2018-05-27 11:00, 0.80,4.7,1.21,65.50,28.00
2018-05-27 12:00, 0.77,5.0,1.24,63.50,30.00
2018-05-27 13:00, 0.74,5.1,1.12,64.50,30.00
2018-05-27 14:00, 0.77,5.3,1.49,64.50,31.00
2018-05-27 15:00, 0.80,4.9,1.21,64.50,30.00
2018-05-27 16:00, 0.80,5.4,1.27,63.50,31.00
2018-05-27 17:00, 0.86,6.5,1.53,66.50,30.00
2018-05-27 18:00, 0.90,5.6,1.31,64.50,31.00
2018-05-27 19:00, 0.90,5.6,1.35,62.50,36.00
2018-05-27 20:00, 0.91,6.3,1.41,64.50,32.00
2018-05-27 21:00, 0.92,5.9,1.39,63.50,29.00
2018-05-27 22:00, 0.88,6.1,1.57,65.50,30.00
2018-05-27 23:00, 0.91,4.8,1.48,63.50,30.00
2018-05-28 00:00, 0.85,5.1,1.40,60.50,29.00
2018-05-28 01:00, 0.80,4.9,1.46,59.50,30.00
2018-05-28 02:00, 0.76,7.7,1.31,56.50,30.00
2018-05-28 03:00, 0.74,7.7,1.18,51.50,35.00
2018-05-28 04:00, 0.72,7.7,1.35,56.50,27.00
2018-05-28 05:00, 0.67,5.6,1.06,58.50,32.00
2018-05-28 06:00, 0.68,6.9,1.22,57.50,29.00
2018-05-28 07:00, 0.68,5.0,1.05,58.50,31.00
2018-05-28 08:00, 0.72,6.7,1.10,61.50,30.00
2018-05-28 09:00, 0.76,7.4,1.21,60.50,29.00
2018-05-28 10:00, 0.85,7.7,1.20,61.50,31.00
2018-05-28 11:00, 0.83,7.7,1.17,61.50,32.00
2018-05-28 12:00, 0.97,5.7,1.43,63.50,30.00
2018-05-28 13:00, 1.03,5.9,1.78,65.50,29.00
2018-05-28 14:00, 1.06,5.7,1.80,67.50,29.00
2018-05-28 15:00, 1.12,5.4,1.88,68.50,28.00
2018-05-28 16:00, 1.00,4.5,1.56,69.50,30.00
2018-05-28 17:00, 1.10,5.9,1.73,69.50,27.00
2018-05-28 18:00, 1.07,6.3,2.01,71.50,28.00
2018-05-28 19:00, 1.02,5.7,1.72,67.50,30.00
2018-05-28 20:00, 1.01,5.7,1.78,66.50,28.00
2018-05-28 21:00, 1.04,5.6,1.61,65.50,25.00
2018-05-28 22:00, 1.00,5.7,1.80,64.50,29.00
2018-05-28 23:00, 1.04,5.0,1.77,63.50,25.00
2018-05-29 00:00, 0.89,5.4,1.39,60.50,29.00
2018-05-29 01:00, 0.96,5.9,1.48,61.50,28.00
2018-05-29 02:00, 1.00,5.6,1.47,63.50,27.00
2018-05-29 03:00, 1.02,7.1,1.71,60.50,27.00
2018-05-29 04:00, 1.02,5.6,1.69,58.50,30.00
2018-05-29 05:00, 1.09,6.9,1.75,62.50,28.00
2018-05-29 06:00, 1.09,7.1,1.55,64.50,27.00
2018-05-29 07:00, 1.07,6.9,1.67,67.50,30.00
2018-05-29 08:00, 1.13,6.5,1.90,65.50,29.00
2018-05-29 09:00, 1.14,5.4,1.88,67.50,30.00
2018-05-29 10:00, 1.06,5.6,1.85,63.50,31.00
2018-05-29 11:00, 1.02,6.3,1.53,62.50,31.00
2018-05-29 12:00, 1.06,5.7,1.56,58.50,31.00
2018-05-29 13:00, 1.09,5.7,2.01,60.50,29.00
2018-05-29 14:00, 1.15,5.4,1.93,61.50,29.00
2018-05-29 15:00, 1.17,6.3,2.01,61.50,30.00
2018-05-29 16:00, 1.08,7.1,1.97,63.50,30.00
2018-05-29 17:00, 1.08,6.5,1.72,60.50,31.00
2018-05-29 18:00, 1.16,5.6,1.96,61.50,30.00
2018-05-29 19:00, 1.12,5.4,1.75,60.50,29.00
2018-05-29 20:00, 1.04,5.6,1.64,59.50,31.00
2018-05-29 21:00, 1.08,5.7,1.79,61.50,30.00
2018-05-29 22:00, 1.05,5.9,1.73,58.50,31.00
2018-05-29 23:00, 0.98,7.1,1.60,55.50,28.00
2018-05-30 00:00, 0.94,6.1,1.46,53.50,29.00
2018-05-30 01:00, 1.00,5.7,1.51,53.50,29.00
2018-05-30 02:00, 0.97,4.8,1.53,57.50,30.00
2018-05-30 03:00, 0.95,6.9,1.56,56.50,29.00
2018-05-30 04:00, 0.99,5.3,1.56,55.50,28.00
2018-05-30 05:00, 0.99,5.7,1.63,57.50,26.00
2018-05-30 06:00, 0.94,5.4,1.45,62.50,31.00
2018-05-30 07:00, 0.96,6.1,1.42,60.50,32.00
2018-05-30 08:00, 1.01,6.3,1.92,63.50,28.00
2018-05-30 09:00, 1.00,5.9,1.51,65.50,30.00
2018-05-30 10:00, 1.03,5.7,1.81,63.50,26.00
2018-05-30 11:00, 1.06,5.4,1.98,62.50,27.00
2018-05-30 12:00, 1.02,6.1,1.69,60.50,30.00
2018-05-30 13:00, 1.07,5.6,1.95,61.50,31.00
2018-05-30 14:00, 1.04,5.6,1.85,61.50,28.00
2018-05-30 15:00, 1.04,5.3,1.87,64.50,30.00